Regional Weather Roundup
Issued by NWS

Home | Current Version | Previous Version | Text Only | Print | Product List | Glossary On
Versions: 1 2 3 4 5 6 7 8 9 10 11 12 13 14 15 16 17 18 19 20 21 22 23 24 25 26 27 28 29 30 31 32 33 34 35 36 37 38 39 40 41 42 43 44 45 46 47 48 49 50
000
ASUS44 KFWD 201015
RWRTX
NORTH TEXAS HOURLY WEATHER ROUNDUP
NATIONAL WEATHER SERVICE FORT WORTH TX
500 AM CDT SUN MAY 20 2018

NOTE: "FAIR" INDICATES FEW OR NO CLOUDS BELOW 12,000 FEET WITH NO
SIGNIFICANT WEATHER AND/OR OBSTRUCTIONS TO VISIBILITY.

TXZ118-119-201100-
DALLAS/FORT WORTH METROPLEX

CITY           SKY/WX    TMP DP  RH WIND       PRES   REMARKS
DFW AIRPORT    CLOUDY    75  68  78 S6        29.93R
DALLAS LOVE    MOCLDY    76  69  79 SE13      29.92S
FTW MEACHAM    LGT RAIN  77  68  73 SW8       29.96R
DAL-EXECUTIVE  FAIR      75  68  78 SE10      29.92F
FTW-ALLIANCE   MOCLDY    74  63  68 W13G24    29.98R
FTW-NAS-JRB    CLOUDY    77  67  71 W8        29.98R
FTW-SPINKS     FAIR      74  66  78 S3        29.98R
ARLINGTON      FAIR      75  69  81 S6        29.95R
GRAND PRAIRIE  FAIR      75  66  73 S6        29.95S
ADDISON        FAIR      75  68  80 SE9       29.94F
MESQUITE       FAIR      73  68  86 SE8       29.95S
LANCASTER      FAIR      73  68  85 SE7       29.93F
$$

TXZ091>094-102>105-117-120-121-131>134-201100-
NORTH CENTRAL TEXAS

CITY           SKY/WX    TMP DP  RH WIND       PRES   REMARKS
SHRMAN/DENISON FAIR      73  67  80 W3        29.99R
GAINESVILLE    CLOUDY    68  61  78 W15       30.05R
BOWIE          LGT RAIN  63  62  97 NW8       30.02S
BRIDGEPORT     CLOUDY    64  63  96 N7        30.03R
DECATUR        CLOUDY    64  61  90 NW7       30.01R
DENTON         MOCLDY    76  66  71 W14G25    29.97R
MCKINNEY       FAIR      75  70  84 S12       29.95R
BONHAM         FAIR      73  67  80 S8        29.97R
GREENVILLE     FAIR      77  70  78 SE8       29.97S
ROCKWALL       FAIR      73  69  88 SE5       29.96S
TERRELL        FAIR      73  68  84 SE7       29.96S
WAXAHACHIE     FAIR      73  69  85 SE5       29.95S
CLEBURNE       FAIR      73  70  88 S8        29.98R
GRANBURY       CLOUDY    77  67  71 CALM      29.98R
$$

TXZ083>090-098>101-113>116-127>130-139>142-154-155-201100-
WESTERN NORTH TEXAS

CITY           SKY/WX    TMP DP  RH WIND       PRES   REMARKS
WICHITA FALLS  LGT RAIN  63  61  93 W5        30.02R
WF-KICKAPOO    LGT RAIN  64  63  94 N6        30.05R
VERNON         CLOUDY    65  64  97 W3        30.05F
ABILENE        LGT RAIN  64  59  83 W10       30.10R
ABILENE-DYESS  LGT RAIN  64  57  77 N10       30.08R
GRAHAM           N/A     63  32  31 N5        30.00R
BRECKENRIDGE   CLOUDY    66  57  72 NE14      30.00F
CISCO          CLOUDY    66  57  72 N14G21    30.03S
EASTLAND       CLOUDY    65  56  73 N14G21    30.00F
RANGER         CLOUDY    63  58  84 N8        30.01S
MINERAL WELLS  CLOUDY    67  59  75 N15       29.98R
STEPHENVILLE   CLOUDY    74  66  76 W13G23    30.02R
COMANCHE       MOCLDY    73  64  73 NW9       30.00R THUNDER
BROWNWOOD      MOCLDY    68  57  68 N14G21    30.01R
COLEMAN        CLOUDY    66  57  73 N10       30.05R
BRADY          MOCLDY    70  64  83 N5G23     30.01R
$$

TXZ143>147-156>162-174-175-201100-
CENTRAL TEXAS

CITY           SKY/WX    TMP DP  RH WIND       PRES   REMARKS
WACO           FAIR      75  69  81 SE10      29.93R
WACO-MCGREGOR  FAIR      74  70  87 SE9       29.94R
HILLSBORO      FAIR      74  71  92 S6        29.94R
CORSICANA      FAIR      74  70  87 SE12      29.94F
MEXIA          FAIR      73  69  87 SE10      29.92F
HEARNE         FAIR      74  73  98 E8        29.92F
CAMERON        FAIR      75  71  87 SE13G21   29.90S
TEMPLE         CLOUDY    74  71  91 SE10      29.94R
KILLEEN        CLOUDY    74  69  85 SE12      29.95R
KILLEEN-SKYLRK CLOUDY    75  71  87 SE10      29.96R
FORT HOOD      CLOUDY    74  70  86 SE10      29.92R
GATESVILLE     CLOUDY    75  70  83 SE7       29.98R
HAMILTON       CLOUDY    73  72  95 SW7       29.99R
LAMPASAS       CLOUDY    74  69  85 SE3       29.96R
$$

TXZ095>097-106>112-122>126-135>138-148>153-164>167-201100-
EAST TEXAS

CITY           SKY/WX    TMP DP  RH WIND       PRES   REMARKS
PARIS          FAIR      73  68  84 S8        30.00S
SULPHUR SPRNGS FAIR      75  69  81 S8        30.01S
MOUNT PLEASANT FAIR      71  68  92 S5        30.03R
GILMER         FAIR      72  68  88 S3        30.02R
MINEOLA        FAIR      72  68  88 SE3       30.00S
TYLER          FAIR      73  70  90 SE9       30.00R
LONGVIEW       FAIR      71  70  96 S5        30.01R
MARSHALL       FAIR      65  63  92 CALM      30.05R
ATHENS         FAIR      73  70  88 SE7       29.97S
PALESTINE      FAIR      73  70  90 SE6       30.00S
JACKSONVILLE   FAIR      71  70  97 S5        30.03S
HENDERSON      FAIR      68  67  97 CALM      30.03S
CENTER         FAIR      67  65  96 CALM      30.04R
NACOGDOCHES      N/A     68  66  93 CALM      30.02R
LUFKIN         FAIR      70  69  97 E5        30.00S
$$

SUPPLEMENTAL OBSERVATIONS (NWS FORT WORTH AREA)

CITY           SKY/WX    TMP DP  RH WIND       PRES   REMARKS
DENISON DAM      N/A     75  66  73 W5          N/A
POSSUM KINGDOM   N/A     64  57  77 N14         N/A
GRANBURY         N/A     75  66  73 S3G12       N/A
COMANCHE         N/A     70  59  68 N16         N/A
MCGREGOR         N/A     73  70  88 S12         N/A
TEMPLE           N/A     73  70  88 SE3G18      N/A
LAKE LIMESTONE   N/A     73  70  88 SE8         N/A
ATHENS           N/A     73  70  88 SE8         N/A
PALESTINE        N/A     72  68  88 SE3         N/A
$$

SUPPLEMENTAL OBSERVATIONS (NWS NORMAN AREA)

CITY           SKY/WX    TMP DP  RH WIND       PRES   REMARKS
GOODLETT       LGT RAIN  58  55  88 N17       30.08R
ODELL            N/A     63  62  98 NW8       30.07R
CROWELL          N/A     62  62  98 NW3       30.07R
KNOX CITY        N/A     62  60  93 NE12      30.02F
SEYMOUR          N/A     63  61  94 N3        30.04R
MILLERS CREEK    N/A     63  59  88 W5          N/A
$$

SUPPLEMENTAL OBSERVATIONS (NWS SAN ANGELO AREA)

CITY           SKY/WX    TMP DP  RH WIND       PRES   REMARKS
WEINERT          N/A     62  59  90 NE8       30.04F
HASKELL          N/A     62  59  87 N15       30.02F
THROCKMORTON     N/A     62  61  97 NW3       30.06R
STAMFORD         N/A     65  58  78 NW7       30.08R
CLYDE            N/A     65  56  73 NW1       30.09R
HAMBY            N/A     66  54  63 N6G24       N/A
IVIE RESERVOIR   N/A     70  59  68 N15G23      N/A
COLORADO BEND    N/A     73  68  83 E5G15       N/A
$$

SUPPLEMENTAL OBSERVATIONS (NWS SHREVEPORT AREA)

CITY           SKY/WX    TMP DP  RH WIND       PRES   REMARKS
TEXARKANA        N/A     70  68  94 CALM        N/A
LINDEN           N/A     70  64  83 CALM        N/A
CADDO LAKE       N/A     66  63  88 CALM        N/A
LUFKIN           N/A     70  68  94 MISG        N/A
$$

SUPPLEMENTAL OBSERVATIONS ARE A COLLECTION OF AUTOMATED INSTRUMENTS
THAT ARE MAINTAINED BY A VARIETY OF FEDERAL AND STATE AGENCIES.
CERTAIN ELEMENTS...SUCH AS HUMIDITY VALUES AND SUSTAINED WIND
SPEEDS...MAY BE APPROXIMATED.




USA.gov is the U.S. government's official web portal to all federal, state and local government web resources and services.